weather.gov     
National Weather Service

Terminal Aerodrome Forecast
NWS Homepage
This page is being discontinued on March 12, 2014.
The same data is available at this site. Please update your bookmarks.
Thank you, and we apologize for the inconvenience.
Please send an email to SR-SRH.Webmaster@noaa.gov with any concerns.


Current Version
Previous Version:    01  02  03  04  05  06  07  08  09  10  11  12  13  14  15  16  17  18  19  20  21  22  23  24  25  26  27  28  29  30  
   31  32  33  34  35  36  37  38  39  
[Printable]
445
FTUS43 KIWX 202300 RRA
TAFSBN
TAF
KSBN 202339Z 2100/2124 20002KT P6SM SCT050 BKN100
     FM210900 19005KT P6SM SCT030 BKN060
      TEMPO 2111/2114 4SM TSRA BR BKN030CB
     FM211400 20010KT 6SM -SHRA BR OVC040
      TEMPO 2114/2118 3SM TSRA BR OVC020CB=


U.S. Dept. of Commerce
NOAA National Weather Service
1325 East West Highway
Silver Spring, MD 20910
E-mail: w-nws.webmaster@noaa.gov
Page last modified: May 16, 2007
NATIONAL WEATHER SERVICE: for Safety, for Work, for Fun - FOR LIFE